Wind_Speed
3 3 6 8 11 13 16 17 17 18 19 19 19 20 23 24 23 23 25 25 25 22 22 23 23 24 25 27 29 29 30 30 30 30 30 30 30 30 34 37 40 40 38
3 2 4 7 10 14 16 16 16 16 17 17 19 21 23 24 25 26 27 26 25 23 22 23 23 24 25 26 28 30 30 31 31 32 32 32 31 33 35 38 41 43 43
3 1 2 4 7 11 12 13 14 15 18 19 21 23 24 25 29 30 28 28 26 24 21 20 22 24 25 25 27 29 30 32 33 33 34 33 34 33 36 40 42 47 47
5 2 0 4 8 11 13 13 14 17 19 20 23 25 24 29 32 32 28 24 22 22 22 23 23 24 24 25 27 28 30 30 34 35 35 36 35 36 36 40 44 46 47
5 2 1 4 8 10 12 13 13 16 19 23 25 25 32 31 33 25 25 24 22 21 21 21 23 24 23 24 26 28 29 31 34 34 34 36 37 38 38 39 43 44 51
6 3 1 3 7 10 11 11 14 15 17 20 24 30 28 35 23 23 22 17 18 18 19 21 21 21 24 27 25 27 26 27 30 34 38 35 36 39 41 40 42 45 49
8 5 2 4 7 9 10 11 13 16 20 19 22 22 27 13 22 13 9 12 15 17 19 15 20 19 20 23 23 25 28 35 31 32 31 34 43 37 39 42 42 46 52
11 7 4 4 6 8 9 10 11 14 16 9 11 19 4 13 4 26 33 23 14 14 20 15 17 24 28 27 32 30 27 30 30 29 28 33 32 38 41 40 44 46 50
11 7 5 4 6 9 10 10 11 12 14 18 10 7 4 3 17 6 20 24 15 17 23 31 28 23 32 25 27 32 31 30 34 38 41 37 36 34 32 42 43 48 52
13 10 6 6 7 8 10 10 10 13 14 15 13 9 12 16 4 8 4 20 28 21 21 30 31 25 30 39 33 34 37 40 37 36 37 38 34 36 36 35 40 46 51
14 10 7 7 8 9 10 11 14 16 14 14 14 15 15 15 18 9 16 11 25 28 29 31 34 33 33 31 38 43 34 32 37 43 39 39 42 44 44 40 38 40 49
14 11 9 8 9 11 10 10 14 17 17 16 17 17 18 11 10 11 8 21 21 32 29 32 32 33 33 37 41 37 39 43 43 42 42 42 44 48 47 43 41 39 41
19 14 10 11 12 12 12 14 15 16 16 17 18 19 19 22 21 19 21 23 16 37 28 34 35 34 33 33 35 36 41 40 42 44 45 46 46 48 48 44 41 41 41
20 16 16 15 13 12 13 13 14 15 15 17 19 20 23 24 23 21 21 20 16 20 36 35 29 29 32 33 32 31 33 36 41 44 45 47 47 47 46 50 50 47 45
21 19 17 15 14 13 13 13 14 15 15 17 19 21 23 25 23 23 23 23 20 16 21 39 31 28 32 33 35 33 33 33 39 40 43 45 47 43 49 50 53 50 49
22 19 17 15 13 14 13 14 13 14 15 18 19 19 23 22 22 21 22 23 24 24 16 44 44 38 38 40 38 39 42 46 47 47 48 53 47 44 47 48 53 50 49
24 21 19 17 16 14 13 14 14 15 18 22 24 24 26 23 22 23 23 24 26 26 18 50 47 50 43 40 38 38 41 43 45 48 50 51 51 55 50 49 52 52 49
23 20 18 16 15 14 14 14 14 16 19 21 21 20 23 21 23 24 25 26 28 28 28 27 47 46 47 40 40 43 42 41 45 52 57 54 55 50 51 52 58 57 52
24 21 19 17 15 14 14 14 16 18 20 21 21 20 21 22 25 24 26 27 28 28 29 31 37 38 45 41 42 41 45 45 44 50 50 52 56 57 57 56 55 51 50
24 20 18 16 15 15 13 13 13 16 18 18 19 21 22 24 27 27 29 30 31 31 32 33 34 35 36 35 36 35 39 35 40 37 42 43 45 49 52 50 46 43 47
22 19 17 16 14 13 13 13 12 15 18 18 20 21 24 26 27 32 32 31 30 31 31 31 31 31 30 31 30 32 34 35 44 39 38 38 42 40 33 37 36 43 50
22 20 18 15 13 11 11 12 14 15 16 19 21 22 24 28 30 30 33 36 38 37 35 32 33 27 33 36 36 34 33 26 16 33 22 36 39 21 23 30 29 39 47
21 18 15 13 11 12 12 12 12 14 17 20 22 25 26 27 30 34 36 40 41 42 44 44 41 38 39 39 38 37 33 32 31 41 31 33 37 36 34 32 31 33 38
21 17 14 11 10 12 10 11 12 15 19 21 23 25 28 31 30 34 37 39 38 36 37 41 46 47 44 43 41 43 42 41 42 43 30 15 39 35 36 32 35 35 38
21 18 13 12 13 12 10 9 10 16 21 22 22 24 25 29 33 35 38 39 40 38 39 44 48 51 52 51 50 44 39 30 18 30 30 27 31 32 29 34 37 37 36
21 15 13 12 12 9 5 6 10 16 18 22 22 21 26 28 32 38 41 37 38 36 36 42 45 47 45 46 49 45 38 26 16 17 30 25 32 20 6 19 14 20 19
Wind_Direction
98 51 28 15 3 355 354 351 348 345 342 338 336 331 325 323 321 319 314 314 312 307 304 302 299 295 290 286 282 280 277 276 272 269 262 263 259 251 243 236 231 228 227
137 57 24 12 358 349 351 350 346 338 334 330 328 326 323 321 319 315 312 310 306 305 303 302 299 295 292 288 286 279 276 274 272 270 266 260 258 253 244 239 235 231 227
170 118 23 6 343 342 345 342 340 337 330 331 325 323 320 317 312 311 311 308 305 305 306 301 299 297 294 291 287 284 279 272 273 269 268 263 259 255 248 240 237 231 230
186 176 28 350 337 341 345 343 343 330 326 326 321 321 316 310 309 311 309 309 308 301 298 298 299 299 299 295 291 286 282 279 273 271 268 267 263 257 252 246 237 230 226
191 197 324 338 340 345 347 343 333 322 324 324 325 313 317 316 316 317 312 312 308 307 306 313 313 309 304 302 299 294 289 284 277 270 267 266 265 262 256 251 241 233 219
197 204 271 343 341 344 342 335 317 319 318 321 317 311 317 317 311 309 306 306 316 312 313 306 309 310 308 304 302 299 294 292 289 281 271 264 266 264 260 253 245 235 222
200 212 242 325 336 331 324 317 312 312 317 331 322 320 318 317 310 316 312 303 291 287 299 311 297 302 306 309 302 300 299 297 292 288 286 280 265 268 261 256 248 238 225
207 212 238 299 311 305 306 308 310 309 312 341 330 308 314 311 213 313 303 296 297 309 297 293 298 295 298 292 300 298 298 295 294 292 298 293 283 270 266 260 250 239 235
211 220 244 287 292 300 302 301 306 307 299 304 313 292 325 304 332 307 294 297 303 301 295 298 297 294 296 293 298 296 298 293 289 289 291 291 286 284 277 262 255 246 236
207 219 239 267 279 285 285 294 291 277 281 286 308 287 273 302 328 318 222 303 304 306 302 296 297 293 289 292 291 287 289 284 285 291 288 288 284 286 284 278 260 250 240
210 220 231 248 262 266 270 276 276 281 280 283 283 288 297 287 278 271 298 295 303 297 295 292 291 291 291 289 286 295 293 292 291 287 281 280 281 280 283 276 270 256 245
206 212 218 236 249 259 272 272 266 272 282 283 281 278 274 270 278 286 291 297 297 300 296 292 287 285 284 284 288 284 285 288 287 283 282 278 278 275 278 272 270 264 252
200 204 212 227 241 253 257 266 276 279 282 280 282 277 276 273 275 277 280 287 295 297 296 289 284 284 284 284 284 286 289 285 283 282 282 281 278 274 268 268 268 267 260
200 197 212 230 242 255 262 267 273 276 278 276 277 277 275 273 269 267 271 287 299 294 296 284 288 281 282 285 288 287 284 289 288 286 278 276 278 270 260 266 273 271 265
201 205 217 230 244 256 261 265 270 276 278 280 276 275 274 274 273 272 272 271 274 291 292 294 295 291 290 290 289 290 291 290 289 289 286 286 281 277 266 260 267 265 262
205 211 223 235 244 252 262 268 272 275 274 276 275 274 271 272 274 274 273 270 265 267 278 284 290 291 294 291 287 287 287 287 284 283 283 282 278 275 271 267 257 258 258
204 211 223 233 242 253 260 262 268 274 271 273 275 274 273 275 277 276 273 271 268 264 267 282 284 292 293 291 291 290 288 287 285 281 276 275 278 271 271 269 263 257 254
204 213 222 231 242 252 256 259 269 269 269 276 275 272 273 282 277 274 273 270 269 267 269 275 284 291 292 294 290 287 286 285 283 280 278 276 271 271 266 266 263 254 242
203 208 218 227 237 244 251 263 269 270 273 272 270 272 277 279 276 274 272 272 271 272 270 269 276 282 286 291 289 285 283 282 279 280 279 272 268 266 268 267 259 243 249
202 207 217 224 231 242 256 262 262 269 271 273 277 276 277 275 275 276 274 271 270 267 265 265 267 273 276 283 282 282 283 283 284 286 284 272 268 267 258 262 249 247 244
201 206 211 221 233 246 258 259 260 267 277 283 284 284 280 276 280 281 283 282 276 270 268 266 264 266 268 274 272 279 279 287 285 285 285 286 280 271 242 236 250 251 244
196 202 209 221 231 245 250 248 260 275 284 288 289 287 283 284 281 286 287 286 283 282 279 274 273 265 263 263 268 271 273 275 285 289 291 301 304 248 267 261 257 247 241
193 199 207 220 234 246 249 254 266 282 285 287 289 289 292 288 289 288 285 286 283 279 277 278 276 273 276 275 275 274 272 274 278 285 296 292 291 293 279 277 272 262 254
190 196 205 216 230 247 248 256 280 287 287 289 287 291 293 296 298 299 296 291 288 284 280 272 266 268 267 267 267 271 274 276 276 277 277 272 282 271 279 276 276 276 256
185 190 198 215 230 246 256 264 285 291 296 288 295 301 302 306 303 306 305 296 291 289 287 283 279 275 270 264 262 265 262 263 264 269 267 272 273 273 269 278 278 258 242
180 185 197 210 232 247 263 259 286 295 296 295 297 309 310 310 310 311 308 305 297 296 298 289 278 267 263 267 265 272 274 269 273 269 266 264 266 253 265 265 287 294 252
Height
824 826 825 826 826 826 826 825 824 823 823 821 819 818 815 812 810 807 806 805 803 802 802 802 802 803 804 804 803 802 802 802 802 802 802 805 807 809 811 813 815 817 821
823 824 823 824 825 826 825 825 825 824 822 821 818 817 815 812 808 806 802 799 799 797 798 798 799 799 798 798 798 798 797 797 797 798 797 797 799 803 805 807 809 811 813
820 821 822 822 823 823 824 824 824 822 821 819 816 814 811 809 807 803 798 794 794 793 793 794 795 796 795 793 793 794 793 791 791 792 793 792 792 795 798 801 803 805 808
818 819 820 820 820 821 822 822 822 821 820 817 815 812 809 807 802 797 793 790 789 790 789 791 791 791 790 790 789 788 788 786 786 785 786 786 787 788 790 793 796 800 802
816 817 817 818 819 820 821 820 820 820 817 815 812 810 804 800 794 791 789 786 786 785 786 785 788 787 787 786 785 784 781 782 781 779 779 779 779 781 783 785 788 793 794
814 815 815 816 817 818 819 820 820 819 817 814 811 807 801 794 789 787 788 785 783 783 781 782 781 782 784 783 780 781 779 778 777 776 773 772 773 774 775 778 781 784 788
811 812 812 812 814 816 817 819 819 818 813 812 808 805 797 791 789 786 785 784 782 781 779 778 778 779 778 778 778 776 775 773 772 770 769 766 766 767 768 770 774 777 779
806 806 807 809 813 814 815 816 817 815 814 812 812 811 801 789 785 783 782 780 779 780 779 776 776 774 772 771 772 773 772 771 768 767 764 762 761 760 760 762 765 768 771
802 804 805 808 810 811 813 814 814 814 814 811 813 816 809 801 792 779 780 777 777 775 774 773 772 771 770 767 765 766 767 767 766 764 759 756 753 752 751 754 755 759 761
796 798 800 803 805 808 811 810 811 812 813 811 809 810 812 810 803 781 773 773 774 771 770 770 767 765 763 763 760 759 759 760 758 758 753 750 747 745 744 744 746 748 751
792 793 795 798 802 804 806 807 810 810 810 808 807 809 807 808 808 801 774 766 771 769 767 765 762 758 759 756 752 750 749 748 746 745 744 742 739 738 737 737 736 737 740
786 788 790 793 796 799 802 803 805 806 805 803 801 802 803 805 803 801 792 772 770 757 760 758 755 752 749 748 745 742 741 741 740 738 735 732 731 730 728 727 728 728 729
780 782 785 788 790 793 796 798 799 800 800 799 799 799 799 800 799 797 794 778 769 752 754 748 747 743 741 739 736 735 732 731 730 729 726 723 720 718 718 718 717 719 719
773 775 778 783 786 789 791 792 793 793 794 793 792 792 793 793 793 791 791 787 770 754 744 740 740 738 736 733 730 728 725 724 722 721 717 714 711 709 708 708 706 707 709
766 769 775 777 781 784 785 786 785 786 788 788 788 789 788 788 788 786 786 786 784 765 736 720 733 733 732 728 725 721 718 715 713 709 705 702 701 698 697 696 696 695 697
761 764 769 772 776 778 779 780 780 780 782 782 784 782 782 779 779 777 778 777 776 771 755 728 717 725 726 722 718 714 709 707 703 699 695 691 689 687 685 684 684 683 685
754 758 763 767 770 772 773 774 773 774 776 776 777 776 773 772 770 770 768 768 765 765 756 721 722 714 716 714 711 707 702 696 690 686 684 680 675 673 671 670 670 671 672
750 755 761 764 767 768 770 770 768 770 772 770 770 770 768 766 765 764 763 759 756 755 751 739 718 713 706 706 703 697 692 686 681 674 671 665 662 659 656 655 657 658 658
745 749 754 758 761 763 765 765 766 765 766 765 765 764 762 762 760 756 755 750 747 744 741 735 719 714 703 699 694 689 682 675 669 659 653 648 646 644 642 640 640 640 643
742 746 750 753 756 759 760 758 761 763 763 762 760 758 755 754 753 749 745 740 737 732 729 723 715 706 701 693 688 681 668 665 654 648 642 636 631 626 625 626 626 624 627
738 743 745 749 752 753 754 756 757 758 759 757 755 751 750 747 744 742 736 731 727 722 717 710 701 695 690 686 680 673 662 657 644 643 633 624 616 611 606 609 608 610 612
730 736 739 744 745 747 751 754 755 753 753 752 748 745 743 740 736 733 727 722 718 711 704 698 688 680 675 672 668 664 657 650 630 635 628 614 608 597 597 595 593 596 596
726 731 734 739 740 743 747 749 750 747 748 746 743 739 734 732 728 721 714 709 704 701 695 687 676 671 664 663 659 651 646 641 627 617 625 610 606 600 592 585 583 581 583
720 724 729 732 735 738 741 743 743 743 742 740 737 732 726 722 718 713 704 695 689 682 679 673 664 655 652 649 646 640 635 629 619 611 619 610 597 592 584 578 574 571 571
712 717 720 726 730 732 733 734 736 737 735 734 730 725 720 714 711 705 696 685 675 667 663 658 650 641 636 632 632 629 620 619 604 596 603 601 587 580 573 565 557 557 557
704 711 715 717 722 725 726 728 730 730 728 726 723 718 714 709 703 695 686 676 663 655 649 641 632 623 619 617 616 613 607 602 594 580 586 592 577 569 560 552 550 549 543